星链-34056 (STARLINK-34056)

导读 | 豆包AI

STARLINK-34056是美国SpaceX星链星座的成员,于2025年5月7日发射入轨。星链项目旨在构建低轨卫星互联网星座,为全球提供高速宽带服务,尤其弥补偏远地区网络覆盖缺口。该卫星采用平板设计、搭载氪霍尔推进器,具备自主避撞能力,寿命末期会主动离轨在大气层焚毁,减少空间碎片威胁,服务全球接入。

基本信息
目录编号:
63841
目录名称:
STARLINK-34056
国际标识:
2025-093F
轨道中心:
EARTH
卫星名称:
星链-34056
卫星全名:
星链-34056 (STARLINK-34056)
卫星状态:
在轨 (已飞行357 天)
发射日期:
2025-05-07 UTC
国别 :
美国 (US)
星等 :
--
轨道信息
数据来源 国际轨道数据
星历时间: 2026-04-29T11:04:40+0800
14小时前
查看轨道信息
半长轴: 6861.155km
偏心率: 0.0000905
轨道倾角: 42.999°
近地点辐角 291.256°
升交点赤经 153.268°
平近点角 68.820°
近地点: 482.397km
远地点: 483.639km
周期: 94.266分钟
每日圈数: 15.275905
详细信息
固有亮度:
5
最大亮度:
2.5
卫星平台:
Starlink V1.0
覆盖范围:
全球
运营商:
太空探索技术公司
运营商所在国:
美国
制造商(研发单位):
太空探索技术公司
制造商所在国:
美国
使用方式:
暂无
卫星简介
Starlink 计划是 SpaceX 推出的全球卫星互联网项目,通过发射低轨道卫星,为全球尤其是偏远地区提供高速、低延迟的互联网服务。自 2019 年起,Starlink 已部署数千颗卫星,旨在缩小全球数字鸿沟,推动互联网普及。该项目还为军事、航空等行业提供通信支持,带来广泛经济效益。
2D轨道图
3D轨道图
轨道高度分析图
轨道倾角分析图
轨道综合分析图
查看轨道综合分析图